This demonstration page uses our WeatherBlox Daily Observations layout. Learn more.

Hourly Observations for January 18, 2019

Temp ( °F °C ) Dew Point ( °F °C ) Humidity (%) Winds ( mph kmh ) Pressure ( in mb ) Visibility ( mi km ) Precip ( " mm )
12:15 am 00:15 Cloudy with Mist and Fog 30 -1 29 -1.6 96 96 ESE 12 19 30.03 1017 1.25 2.01168 0 0
12:35 am 00:35 Cloudy with Mist and Fog 30 -1 29 -1.6 96 96 SE 13 20 30.03 1017 0.75 1.207008 0 0
12:55 am 00:55 Cloudy with Mist and Fog 30 -1 29 -1.5 96 96 SE 13 20 30 1016 0.75 1.207008 0 0
1:15 am 01:15 Cloudy with Mist and Fog 30 -1 29 -1.6 96 96 ESE 14 22 30 1016 0.75 1.207008 0 0
1:35 am 01:35 Cloudy with Mist and Fog 30 -1.2 29 -1.8 96 96 ESE 14 22 29.97 1015 1 1.609344 0 0
1:55 am 01:55 Cloudy with Mist and Fog 30 -1.3 28 -2 95 95 ESE 16 26 29.94 1014 0.75 1.207008 0 0
2:15 am 02:15 Cloudy with Mist and Fog 30 -1.3 29 -1.9 96 96 SE 14 22 29.94 1014 1 1.609344 0 0
2:35 am 02:35 Cloudy with Mist and Fog 30 -1.2 29 -1.8 96 96 ESE 15 24 29.94 1014 0.75 1.207008 0 0
2:55 am 02:55 Cloudy with Mist and Fog 30 -1.1 29 -1.7 96 96 ESE 14 22 29.94 1014 0.75 1.207008 0 0
3:15 am 03:15 Cloudy with Mist and Fog 30 -1 29 -1.6 96 96 ESE 12 19 29.97 1015 0.75 1.207008 0 0
3:35 am 03:35 Cloudy with Mist and Fog 30 -1 29 -1.6 96 96 SE 7 11 29.97 1015 0.75 1.207008 0 0
3:55 am 03:55 Cloudy with Freezing Fog 30 -1 29 -1.6 96 96 ESE 14 22 29.91 1013 0.5 0.804672 0 0
4:15 am 04:15 Cloudy with Freezing Fog 30 -1 29 -1.6 96 96 SE 13 20 29.88 1012 0.5 0.804672 0 0
4:35 am 04:35 Cloudy with Mist and Fog 30 -1 29 -1.6 96 96 SE 12 19 29.91 1013 0.75 1.207008 0 0
4:55 am 04:55 Cloudy with Mist and Fog 30 -1 29 -1.6 96 96 SE 10 17 29.91 1013 0.75 1.207008 0 0
5:20 am 05:20 Cloudy with Mist and Fog 30 -1 29 -1.6 96 96 ESE 12 19 29.88 1012 1 1.609344 0 0
5:35 am 05:35 Cloudy with Mist and Fog 30 -1.1 29 -1.7 96 96 ESE 10 17 29.88 1012 1.25 2.01168 0 0
5:55 am 05:55 Cloudy with Mist and Fog 30 -1 29 -1.6 96 96 ESE 9 15 29.85 1011 1.5 2.414016 0 0
6:15 am 06:15 Cloudy with Mist and Fog 30 -1 29 -1.6 96 96 ESE 12 19 29.85 1011 1.75 2.816352 0 0
6:35 am 06:35 Cloudy with Mist and Fog 30 -1.1 29 -1.7 96 96 ESE 8 13 29.85 1011 2 3.218688 0 0
6:55 am 06:55 Cloudy with Mist and Fog 30 -1.1 29 -1.7 96 96 ESE 7 11 29.85 1011 2 3.218688 0 0
7:15 am 07:15 Cloudy with Mist and Fog 30 -1 29 -1.6 96 96 ESE 8 13 29.85 1011 2 3.218688 0 0
7:35 am 07:35 Cloudy with Mist and Fog 30 -1.1 29 -1.7 96 96 ESE 7 11 29.88 1012 2 3.218688 0 0
7:55 am 07:55 Cloudy with Mist and Fog 30 -1 29 -1.6 96 96 ESE 7 11 29.88 1012 2 3.218688 0 0
8:15 am 08:15 Cloudy with Mist and Fog 30 -1 29 -1.6 96 96 E 5 7 29.88 1012 1.75 2.816352 0 0
8:35 am 08:35 Cloudy with Mist and Fog 30 -1 29 -1.7 95 95 E 6 9 29.88 1012 1.25 2.01168 0 0
8:55 am 08:55 Cloudy with Mist and Fog 30 -1.1 29 -1.8 95 95 E 7 11 29.88 1012 1.5 2.414016 0 0
9:15 am 09:15 Cloudy with Mist and Fog 30 -1.1 29 -1.8 95 95 ENE 8 13 29.94 1014 1.5 2.414016 0 0
9:35 am 09:35 Cloudy with Mist and Fog 30 -1.2 28 -2 94 94 ENE 7 11 29.94 1014 1.75 2.816352 0 0
9:55 am 09:55 Cloudy with Mist and Fog 30 -1.1 29 -1.8 95 95 ENE 6 9 29.94 1014 2 3.218688 0 0
10:15 am 10:15 Cloudy with Mist and Fog 30 -1 29 -1.7 95 95 E 9 15 29.88 1012 2.5 4.02336 0 0
10:35 am 10:35 Cloudy with Mist and Fog 30 -1 29 -1.7 95 95 E 8 13 29.91 1013 4 6.437376 0 0
10:55 am 10:55 Cloudy 30 -1 29 -1.7 95 95 NE 8 13 29.97 1015 7 11.265408 0 0
11:15 am 11:15 Cloudy 30 -1 29 -1.7 95 95 NNE 8 13 29.97 1015 10 16.09344 0 0
11:35 am 11:35 Cloudy 30 -1 29 -1.8 94 94 NE 8 13 30 1016 10 16.09344 0 0
11:55 am 11:55 Cloudy 30 -1 29 -1.8 94 94 NNE 8 13 30 1016 10 16.09344 0 0
12:15 pm 12:15 Cloudy 30 -1.1 28 -2 94 94 NNE 10 17 29.97 1015 10 16.09344 0 0
12:35 pm 12:35 Cloudy 30 -1 28 -2 93 93 NNE 9 15 29.97 1015 10 16.09344 0 0
12:55 pm 12:55 Cloudy 30 -1 28 -2 93 93 NE 10 17 29.97 1015 10 16.09344 0 0
1:15 pm 13:15 Cloudy 30 -1 28 -2.1 92 92 NE 10 17 29.97 1015 10 16.09344 0 0
1:35 pm 13:35 Cloudy 30 -1 28 -2.3 91 91 NNE 8 13 29.97 1015 10 16.09344 0 0
1:55 pm 13:55 Cloudy 30 -1 28 -2.2 92 92 NNE 9 15 29.97 1015 10 16.09344 0 0
2:15 pm 14:15 Cloudy 30 -1.1 28 -2.5 90 90 NNE 13 20 29.97 1015 10 16.09344 0 0
2:35 pm 14:35 Cloudy 30 -1.1 28 -2.5 90 90 NNE 12 19 30 1016 10 16.09344 0 0
2:55 pm 14:55 Cloudy 30 -1.3 27 -2.7 90 90 NNE 14 22 30 1016 10 16.09344 0 0
3:15 pm 15:15 Cloudy 29 -1.9 26 -3.1 92 92 NE 17 28 30.03 1017 10 16.09344 0 0
3:35 pm 15:35 Cloudy with Mist and Fog 26 -3.4 24 -4.5 92 92 NE 17 28 30.06 1018 5 8.04672 0 0
3:55 pm 15:55 Cloudy with Mist and Fog 25 -4.1 23 -5 94 94 NNE 16 26 30.09 1019 4 6.437376 0 0
4:15 pm 16:15 Cloudy with Mist and Fog 24 -4.5 22 -5.5 93 93 NNE 15 24 30.12 1020 5 8.04672 0 0
4:35 pm 16:35 Cloudy with Mist and Fog 23 -4.8 22 -5.7 94 94 NNE 12 19 30.12 1020 5 8.04672 0 0
4:55 pm 16:55 Cloudy with Mist and Fog 23 -5 21 -6 93 93 N 16 26 30.15 1021 4 6.437376 0 0
5:15 pm 17:15 Cloudy with Mist and Fog 23 -5.1 21 -6.3 91 91 N 14 22 30.15 1021 3 4.828032 0 0
5:35 pm 17:35 Cloudy with Mist and Fog 22 -5.3 20 -6.6 91 91 N 14 22 30.21 1023 5 8.04672 0 0
5:55 pm 17:55 Cloudy 22 -5.5 20 -6.8 91 91 N 17 28 30.21 1023 10 16.09344 0 0
6:15 pm 18:15 Cloudy 22 -5.8 19 -7.3 89 89 N 18 30 30.21 1023 10 16.09344 0 0
6:35 pm 18:35 Cloudy 21 -6.2 18 -7.8 89 89 N 16 26 30.21 1023 10 16.09344 0 0
6:55 pm 18:55 Cloudy 21 -6.3 17 -8.1 87 87 N 13 20 30.21 1023 10 16.09344 0 0
7:15 pm 19:15 Cloudy 20 -6.4 17 -8.4 86 86 N 16 26 30.24 1024 10 16.09344 0 0
7:35 pm 19:35 Cloudy 20 -6.5 17 -8.6 85 85 N 16 26 30.27 1025 10 16.09344 0 0
7:55 pm 19:55 Cloudy 20 -6.8 16 -9.1 84 84 N 14 22 30.27 1025 10 16.09344 0 0
8:15 pm 20:15 Cloudy 19 -7 15 -9.2 85 85 N 15 24 30.27 1025 10 16.09344 0 0
8:35 pm 20:35 Cloudy 19 -7.1 15 -9.3 85 85 N 18 30 30.33 1027 10 16.09344 0 0
8:55 pm 20:55 Cloudy 19 -7.4 15 -9.6 84 84 N 14 22 30.33 1027 10 16.09344 0 0
9:15 pm 21:15 Cloudy 18 -7.6 14 -9.8 84 84 N 15 24 30.33 1027 10 16.09344 0 0
9:35 pm 21:35 Cloudy 18 -7.7 14 -10.1 83 83 N 16 26 30.33 1027 10 16.09344 0 0
9:55 pm 21:55 Cloudy 18 -7.9 13 -10.5 82 82 N 15 24 30.36 1028 10 16.09344 0 0
10:15 pm 22:15 Cloudy 18 -8 13 -10.8 81 81 N 16 26 30.36 1028 10 16.09344 0 0
10:35 pm 22:35 Cloudy 18 -8 13 -10.5 82 82 N 15 24 30.36 1028 10 16.09344 0 0
10:55 pm 22:55 Cloudy 18 -8 13 -10.7 81 81 N 16 26 30.39 1029 10 16.09344 0 0
11:15 pm 23:15 Cloudy 17 -8.3 12 -11.1 80 80 N 14 22 30.39 1029 10 16.09344 0 0
11:35 pm 23:35 Cloudy 17 -8.3 12 -11 81 81 N 15 24 30.39 1029 10 16.09344 0 0
11:55 pm 23:55 Cloudy 17 -8.5 11 -11.4 80 80 N 16 26 30.39 1029 10 16.09344 0 0

Powered by AerisWeather